Weather History for KNYL - April, 2013

Change the Weather History Date:

Sunday, April 7, 2013

  Actual Average Record
Temperature  
Mean Temperature 76 °F 71 °F  
Max Temperature 89 °F 84 °F 106 °F (1989)
Min Temperature 62 °F 58 °F 41 °F (1922)
Degree Days  
Heating Degree Days 0 1  
Month to date heating degree days 0 7  
Since 1 July heating degree days 705 680  
Cooling Degree Days 11 6  
Month to date cooling degree days 73 41  
Year to date cooling degree days 282 194  
Growing Degree Days 26 (Base 50)    
Moisture  
Dew Point 43 °F    
Average Humidity 34    
Maximum Humidity 52    
Minimum Humidity 16    
Precipitation  
Precipitation 0.00 in 0.01 in 0.01 in (1965)
Month to date precipitation 0.00 0.06  
Year to date precipitation 1.11 1.15  
Sea Level Pressure  
Sea Level Pressure 29.76 in    
Wind  
Wind Speed 4 mph (SW)    
Max Wind Speed 13 mph    
Max Gust Speed 21 mph    
Visibility 10 miles    
Events      
T = Trace of Precipitation, MM = Missing Value Source: NWS Daily Summary

Daily Weather History Graph

Daily Weather History Graph

Search for Another Location

Airport or City:

Trip Planner

Search our weather history database for the weather conditions in past years. The results will help you decide how hot, cold, wet, or windy it might be!

Date:

Astronomy

Apr. 07, 2013 Rise Set
Actual Time 6:18 AM MST 7:02 PM MST
Civil Twilight 5:53 AM MST 7:27 PM MST
Nautical Twilight 5:24 AM MST 7:57 PM MST
Astronomical Twilight 4:53 AM MST 8:27 PM MST
Moon 4:30 AM MST 4:45 PM MST
Length of Visible Light 13h 34m
Length of Day
12h 44m
Waning Crescent, 7% of the Moon is Illuminated
Apr 7
Waning Crescent
Apr 10
New
Apr 18
First Quarter
Apr 25
Full
May 2
Last Quarter

Hourly Weather History & Observations

Time (MST) Temp. Dew Point Humidity Pressure Visibility Wind Dir Wind Speed Gust Speed Precip Events Conditions
12:55 AM 70.0 °F 45.0 °F 41% 29.82 in 10.0 mi WSW 6.9 mph - N/A   Clear
1:55 AM 66.9 °F 46.0 °F 47% 29.81 in 10.0 mi SSW 4.6 mph - N/A   Clear
2:55 AM 64.9 °F 46.0 °F 50% 29.79 in 10.0 mi Calm Calm - N/A   Clear
3:55 AM 64.0 °F 46.0 °F 52% 29.78 in 10.0 mi South 3.5 mph - N/A   Clear
4:55 AM 63.0 °F 44.1 °F 50% 29.78 in 10.0 mi Calm Calm - N/A   Clear
5:55 AM 64.9 °F 45.0 °F 48% 29.79 in 10.0 mi Calm Calm - N/A   Partly Cloudy
6:55 AM 64.0 °F 45.0 °F 50% 29.81 in 10.0 mi Calm Calm - N/A   Scattered Clouds
7:55 AM 66.0 °F 46.0 °F 48% 29.83 in 10.0 mi Calm Calm - N/A   Scattered Clouds
8:55 AM 71.1 °F 48.9 °F 45% 29.84 in 10.0 mi South 3.5 mph - N/A   Scattered Clouds
9:55 AM 75.0 °F 48.0 °F 38% 29.85 in 10.0 mi Calm Calm - N/A   Mostly Cloudy
10:55 AM 80.1 °F 43.0 °F 27% 29.85 in 10.0 mi Variable 3.5 mph - N/A   Mostly Cloudy
11:55 AM 82.0 °F 39.0 °F 22% 29.83 in 10.0 mi Variable 4.6 mph - N/A   Mostly Cloudy
12:55 PM 86.0 °F 36.0 °F 17% 29.79 in 10.0 mi WNW 3.5 mph - N/A   Mostly Cloudy
1:55 PM 87.1 °F 35.1 °F 16% 29.77 in 10.0 mi Variable 3.5 mph - N/A   Mostly Cloudy
2:55 PM 87.1 °F 37.0 °F 17% 29.74 in 10.0 mi Variable 4.6 mph - N/A   Mostly Cloudy
3:55 PM 88.0 °F 37.9 °F 17% 29.72 in 10.0 mi WSW 5.8 mph - N/A   Mostly Cloudy
4:55 PM 88.0 °F 37.9 °F 17% 29.70 in 10.0 mi West 6.9 mph - N/A   Mostly Cloudy
5:55 PM 86.0 °F 42.1 °F 21% 29.70 in 10.0 mi WNW 10.4 mph - N/A   Mostly Cloudy
6:55 PM 82.9 °F 41.0 °F 23% 29.67 in 10.0 mi West 4.6 mph - N/A   Mostly Cloudy
7:55 PM 80.1 °F 43.0 °F 27% 29.67 in 10.0 mi SSW 10.4 mph - N/A   Mostly Cloudy
8:55 PM 78.1 °F 46.9 °F 33% 29.68 in 10.0 mi South 9.2 mph - N/A   Scattered Clouds
9:08 PM - - N/A% - - North - - N/A   Unknown
9:55 PM 73.0 °F 45.0 °F 37% 29.69 in 10.0 mi South 5.8 mph - N/A   Partly Cloudy
10:55 PM 70.0 °F 45.0 °F 41% 29.67 in 10.0 mi South 6.9 mph - N/A   Clear
11:55 PM 71.1 °F 45.0 °F 39% 29.64 in 10.0 mi South 6.9 mph - N/A   Clear